Regional Weather Roundup
Issued by NWS

Home | Current Version | Previous Version | Graphics & Text | Print | Product List | Glossary On
Versions: 1 2 3 4 5 6 7 8 9 10 11 12 13 14 15 16 17 18 19 20 21 22 23 24 25 26 27 28 29 30 31 32 33 34 35 36 37 38 39 40 41 42 43 44 45 46 47 48 49 50
000
ASUS43 KLOT 280604
RWRIL

ILLINOIS REGIONAL WEATHER ROUNDUP
NATIONAL WEATHER SERVICE CHICAGO/ROMEOVILLE IL
100 AM CDT SUN MAY 28 2017

NOTE: "FAIR" INDICATES FEW OR NO CLOUDS BELOW 12,000 FEET WITH NO
SIGNIFICANT WEATHER AND/OR OBSTRUCTIONS TO VISIBILITY.

* THESE STATIONS ARE NOT UNDER NWS QUALITY CONTROL. THEY ALSO MAY NOT
  REPORT WEATHER SUCH AS PRECIPITATION OR FOG.

ILZ001-002-007-009-015-016-024-280700-
NORTHWEST ILLINOIS

CITY           SKY/WX    TMP DP  RH WIND       PRES   REMARKS
MOLINE         CLOUDY    63  60  90 W3        29.80S
6HR MIN TEMP:  62; 6HR MAX TEMP:  73;

STERLING*      CLOUDY    64  61  90 E5        29.80F
SAVANNA*       CLOUDY    61  58  91 CALM      29.80F
$$

ILZ003-004-008-010-011-017-018-280700-
NORTH CENTRAL ILLINOIS

CITY           SKY/WX    TMP DP  RH WIND       PRES   REMARKS
ROCKFORD       CLOUDY    66  59  78 CALM      29.82F
6HR MIN TEMP:  65; 6HR MAX TEMP:  76;

FREEPORT*      CLOUDY    62  58  86 CALM      29.82F
ROCHELLE*      CLOUDY    63  58  85 SE7       29.81F
PERU*          CLOUDY    65  61  86 SE8       29.80F
$$

ILZ005-006-012>014-019>023-280700-
NORTHEAST ILLINOIS

CITY           SKY/WX    TMP DP  RH WIND       PRES   REMARKS
CHICAGO-OHARE  CLOUDY    62  55  77 S3        29.81F
6HR MIN TEMP:  62; 6HR MAX TEMP:  70;

CHICAGO-MIDWAY CLOUDY    62  53  72 E3        29.82S
6HR MIN TEMP:  62; 6HR MAX TEMP:  70;

AURORA         CLOUDY    63  55  75 E5        29.82F
6HR MIN TEMP:  63; 6HR MAX TEMP:  76;

LANSING*       CLOUDY    59  57  92 CALM      29.83S
JOLIET*        CLOUDY    62  59  89 CALM      29.82R
WAUKEGAN       CLOUDY    58  50  75 CALM      29.81F
6HR MIN TEMP:  57; 6HR MAX TEMP:  64;

DUPAGE AIRPORT CLOUDY    63  57  81 CALM      29.81F
6HR MIN TEMP:  62; 6HR MAX TEMP:  72;

KANKAKEE*      MOCLDY    62  62  98 CALM      29.82R FOG
WHEELING       CLOUDY    61  54  77 CALM      29.83S
6HR MIN TEMP:  60; 6HR MAX TEMP:  68;

MORRIS*        CLOUDY    63  59  88 CALM      29.81R
ROMEOVILLE*    CLOUDY    58  58  97 E3        29.82R
NORTHERLY ISL    N/A     58  51  78 CALM        N/A
$$

LMZ740>746-280700-
SOUTHERN LAKE MICHIGAN

STATION/POSITION SKY/WX   TEMP    WIND        PRES    VSBY  WAVE
                          AIR SEA DIR/SP/G                  HT/PER
                          (F)     (DEG/KT/KT) (MB)    (MI)  (FT/S)
SOUTHERN BUOY              53 49   90/  4/  4 1010.4          0
WILMETTE HARBOR            53 55                N/A           0
HARRISON CRIB              57     170/  3/  3   N/A
BURNHAM HARBOR             58      CALM  /  1   N/A
CALUMET HARBOR             57     360/  2/  3 1009.3F
BURNS HARBOR               60        CALM     1010.5S
MICHIGAN CITY              59      60/  3/  3   N/A
MICHIGAN CITY 6N           57 56   60/  2/  4   N/A           0
ST. JOSEPH                 60 59  100/  4/  4 1009.8F         0
$$

ILZ025>027-034>036-040-047-049-050-058-095>099-280700-
WEST-CENTRAL ILLINOIS

CITY           SKY/WX    TMP DP  RH WIND       PRES   REMARKS
QUINCY         CLOUDY    66  63  90 CALM      29.78F
GALESBURG*     CLOUDY    64  61  88 E5        29.79F
MACOMB*        CLOUDY    63  62  94 CALM      29.81F
JACKSONVILLE*  MOCLDY    62  61  97 SE3       29.77F
PITTSFIELD*    CLOUDY    66  62  85 W6        29.78F
$$

ILZ028>032-037-038-041>044-048-051>054-059>061-280700-
CENTRAL ILLINOIS

CITY           SKY/WX    TMP DP  RH WIND       PRES   REMARKS
PONTIAC        CLOUDY    67  66  99 E5        29.81S
BLOOMINGTON    CLOUDY    65  62  90 E6        29.81R
DECATUR        CLOUDY    66  63  90 E6        29.77S
PEORIA         CLOUDY    67  63  87 NE5       29.79R
6HR MIN TEMP:  66; 6HR MAX TEMP:  75;

LACON*         CLOUDY    64  64  99 CALM      29.79R
LINCOLN*       CLOUDY    67  64  90 CALM      29.77F
SPRINGFIELD    CLOUDY    65  62  90 CALM      29.78S
6HR MIN TEMP:  65; 6HR MAX TEMP:  78;

TAYLORVILLE    MOCLDY    64  61  91 CALM      29.77F
6HR MIN TEMP:  64; 6HR MAX TEMP:  76;

$$

ILZ033-039-045-046-055>057-062-063-280700-
EAST-CENTRAL ILLINOIS

CITY           SKY/WX    TMP DP  RH WIND       PRES   REMARKS
CHAMPAIGN      MOCLDY    65  62  90 E8        29.78F
RANTOUL*       CLOUDY    65  64  95 E6        29.79S
MATTOON        CLOUDY    67  66  97 SE3       29.77R
PARIS*         MOCLDY    65  64  96 E3        29.79S
$$

ILZ079-100>102-280700-
SOUTHWEST ILLINOIS

CITY           SKY/WX    TMP DP  RH WIND       PRES   REMARKS
ALTON          CLOUDY    62  60  94 CALM      29.78F
BELLEVILLE     CLOUDY    64  61  89 NW3       29.79F
CAHOKIA*       CLOUDY    65  60  84 CALM      29.78F
SPARTA*        CLOUDY    64  60  86 W7        29.81S
$$

ILZ064>066-069>071-074>076-080>082-084>086-088>090-092>094-280700-
SOUTH-CENTRAL ILLINOIS

CITY           SKY/WX    TMP DP  RH WIND       PRES   REMARKS
CARBONDALE     CLOUDY    64  62  93 NW10      29.79R
6HR MIN TEMP:  63; 6HR MAX TEMP:  68; 6HR PCP:  0.35;

CAIRO*         CLOUDY    65  63  95 S16G25    29.84F
EFFINGHAM*     CLOUDY    65  65 100 CALM      29.78S
MARION         CLOUDY    66  64  94 W7        29.76R
MT. VERNON       N/A     65  60  84 CALM      29.76R
CENTRALIA*     CLOUDY    65  62  90 N5        29.76F
SALEM*         CLOUDY    65  61  85 CALM      29.77F
$$

ILZ067-068-072-073-078-083-087-091-280700-
SOUTHEAST ILLINOIS

CITY           SKY/WX    TMP DP  RH WIND       PRES   REMARKS
LAWRENCEVILLE  CLOUDY    68  64  87 S9        29.78F
FLORA*         CLOUDY    67  63  87 SE7       29.77R
FAIRFIELD*     CLOUDY    68  59  73 CALM      29.79R
HARRISBURG*    CLOUDY    65  62  89 S12G25    29.72F
ROBINSON*      CLOUDY    68  65  92 SE5       29.78S
CARMI*         CLOUDY    66  61  83 S21G28    29.69F
$$

ABBREVIATIONS USED IN REMARKS
   TC - TEMPERATURE IN CELSIUS
  WCI - WIND CHILL INDEX
   HX - HEAT INDEX
  VSB - VISIBILITY
$$





USA.gov is the U.S. government's official web portal to all federal, state and local government web resources and services.